SCP
0 0 0 0 0 0 0 -0 -0 0 0 0 0 0 0 0 0 0 0 0 -0 -0 -0 -0 0 0 0 0 0 0 0 0
0 0 1 1 0 0 0 0 0 -0 -0 0 0 -0 -0 -0 0 0 0 0 -0 -0 -0 -0 0 0 0 0 0 0 0 0
0 1 2 1 0 0 0 0 0 0 -0 -0 -0 -0 -0 -0 -0 -0 -0 0 0 -0 -0 -0 0 0 0 0 0 0 0 0
1 1 2 2 1 0 0 0 0 0 0 -0 -0 -0 -0 -0 -0 -0 -0 -0 -0 0 -0 -0 0 0 0 0 0 0 0 0
1 1 1 2 2 1 1 1 0 0 0 0 -0 -0 -0 -0 -0 -0 -0 -0 0 0 -0 -0 -0 -0 0 0 0 0 0 0
1 1 1 2 2 2 1 1 1 0 0 0 0 -0 -0 -0 -0 -0 -0 -0 0 0 0 0 -0 -0 0 0 0 0 0 0
1 1 1 1 2 3 3 2 2 1 1 1 0 0 0 0 -0 -0 -0 -0 0 0 0 -0 -0 -0 0 0 0 0 0 0
2 1 0 1 1 2 3 3 2 2 1 1 0 0 0 0 -0 -0 -0 -0 0 0 0 0 0 0 0 0 0 0 0 0
1 1 1 0 0 0 2 2 2 2 1 0 0 0 0 0 0 0 0 0 0 0 0 0 0 0 0 0 0 0 0 0
0 0 0 1 1 0 1 1 2 1 1 0 0 0 0 0 0 0 0 0 0 0 0 0 0 0 0 0 0 0 0 0
0 0 0 0 1 0 1 1 1 1 1 0 0 0 0 0 0 0 0 0 0 0 0 0 0 0 0 0 0 0 0 0
0 0 0 1 1 1 1 1 1 1 1 1 0 0 0 0 0 0 0 0 0 0 0 0 0 0 0 0 0 0 0 0
0 0 0 3 2 2 3 2 2 1 1 1 1 1 0 0 0 0 0 0 0 0 0 0 0 0 0 0 0 0 0 0
0 0 0 0 2 2 2 3 3 2 2 1 1 1 1 1 1 1 0 0 0 0 0 0 0 0 0 0 0 0 0 0
0 0 0 0 0 2 3 3 4 4 3 2 1 2 1 1 1 1 2 1 1 1 0 0 0 0 0 0 0 0 0 0
0 0 0 0 0 0 6 5 3 3 3 4 1 1 2 1 1 2 1 2 1 1 1 0 0 0 0 0 0 0 0 0
0 0 0 0 0 0 1 2 3 2 2 3 3 1 1 1 2 2 2 2 2 1 1 0 0 0 0 0 0 0 0 0
0 0 0 0 0 0 0 0 0 0 2 2 2 3 1 0 1 3 2 2 2 2 2 1 0 0 0 0 1 0 0 0
0 0 0 0 0 0 0 0 0 0 0 1 1 0 1 2 1 1 1 1 2 1 1 0 0 0 0 0 0 0 0 0
Wind_Speed_500mb
26 38 48 59 62 59 60 62 62 57 55 54 53 50 46 41 37 34 29 25 22 18 15 13 11 9 8 7 7 6 6 8
31 35 47 59 64 61 59 59 59 57 53 52 51 47 44 42 37 31 27 23 19 16 12 9 5 5 2 1 1 1 3 6
31 41 52 59 65 64 62 60 59 56 53 50 47 46 43 39 36 32 26 21 17 13 9 5 2 1 3 5 4 4 4 5
35 41 53 60 68 67 62 59 58 57 54 50 47 44 41 38 34 29 26 21 16 11 8 5 4 5 7 8 9 7 7 6
37 44 51 61 70 72 68 60 56 55 53 50 46 44 40 37 34 30 25 20 16 12 9 8 8 8 10 11 12 11 7 6
45 43 48 59 68 74 72 68 61 56 54 50 47 44 41 39 34 30 26 21 16 13 12 11 14 14 15 14 15 13 9 3
46 52 49 60 65 73 75 73 70 64 62 57 51 46 43 40 36 30 26 22 19 17 15 14 18 18 20 17 15 15 8 7
17 49 48 52 64 67 76 77 71 69 65 62 56 50 45 43 40 36 31 27 22 21 18 16 19 21 21 18 11 11 11 14
9 22 47 46 52 67 71 79 79 73 65 63 61 56 52 48 44 40 36 29 26 22 16 10 11 16 19 19 14 14 18 19
8 12 21 40 50 57 69 77 79 74 68 64 62 61 58 55 51 47 42 36 29 24 18 11 11 12 14 15 15 20 21 23
35 19 16 25 43 47 56 69 72 69 59 56 60 62 61 58 55 53 49 43 36 27 21 18 15 15 17 25 23 27 27 29
44 39 26 29 42 46 46 57 60 67 53 45 46 59 61 59 58 54 52 48 42 31 28 27 24 24 22 32 31 32 37 37
50 51 55 42 38 54 52 53 54 51 52 59 50 46 51 52 54 54 55 55 46 39 37 36 32 34 32 38 40 41 39 33
59 60 58 56 43 59 61 59 52 50 47 56 60 53 49 49 49 49 51 50 41 46 47 42 42 46 44 42 44 42 32 32
57 58 62 59 55 62 71 69 61 56 54 47 60 61 55 54 56 52 46 43 39 42 48 50 48 46 45 44 44 46 39 35
62 63 65 63 56 69 73 69 56 60 68 64 52 49 53 60 60 49 48 47 47 48 49 51 51 51 48 45 44 48 48 40
60 66 65 64 55 62 61 59 56 51 41 58 74 60 47 59 55 41 54 56 53 52 52 55 59 61 55 51 45 44 47 44
67 70 70 69 53 49 62 60 62 59 53 54 54 49 34 52 54 52 60 61 62 53 49 56 52 60 55 54 52 46 23 26
67 62 60 55 51 49 47 52 63 61 60 62 58 74 66 53 45 48 61 68 67 54 44 51 41 48 55 61 61 48 49 56
Wind_Direction_500mb
161 171 177 174 171 171 165 161 159 159 158 156 154 152 150 148 145 142 138 133 128 123 118 110 106 103 100 101 107 131 151 163
175 175 182 179 175 174 173 169 167 166 165 163 160 158 156 154 152 148 145 142 138 133 125 110 102 92 73 61 103 198 230 216
181 181 182 181 180 179 178 176 175 175 173 170 168 165 163 161 158 156 154 154 151 147 150 142 139 341 308 289 284 282 282 284
188 185 182 185 185 184 184 183 183 183 181 178 176 174 172 169 167 166 166 167 165 170 185 195 245 287 295 294 292 302 308 322
187 195 185 187 190 189 187 188 189 192 190 188 186 183 181 180 178 178 179 180 182 193 215 240 261 285 303 300 305 311 311 3
186 191 192 192 194 195 193 190 191 196 199 198 196 194 192 191 191 190 190 195 204 217 235 259 276 291 299 304 301 296 272 341
187 187 192 196 199 200 199 198 194 196 200 203 203 203 202 203 201 203 205 211 221 235 253 269 281 290 297 308 302 284 259 277
174 198 198 200 202 206 208 205 203 201 202 205 207 208 211 212 210 211 216 222 233 248 260 266 274 286 293 294 319 328 289 293
105 184 209 213 207 209 213 213 210 208 207 209 210 212 214 216 218 219 224 228 237 242 241 240 263 284 299 301 315 332 329 328
222 175 190 219 221 220 216 213 215 215 214 216 216 217 218 219 219 222 227 229 233 233 228 231 250 278 304 318 314 315 330 331
241 250 237 213 217 223 220 218 216 218 221 226 229 226 223 223 225 225 229 231 232 233 239 245 252 260 283 291 298 310 319 323
236 235 227 226 220 218 214 217 217 216 216 219 226 230 229 229 227 230 235 238 240 241 247 251 258 269 278 288 301 311 316 319
237 236 240 237 233 213 213 210 215 223 221 226 218 219 223 222 227 229 239 243 245 246 248 252 261 272 278 286 295 297 298 306
240 241 232 233 218 211 213 216 213 222 224 225 223 213 214 210 214 221 231 240 243 245 248 254 260 267 272 275 280 284 288 305
238 234 225 225 204 204 209 217 222 222 215 210 218 217 228 227 219 220 229 240 239 246 246 247 251 258 265 269 275 280 287 307
227 224 220 221 207 206 208 217 223 234 229 218 221 210 212 234 231 223 230 238 244 249 253 254 255 260 263 268 276 274 281 285
217 217 219 222 216 213 215 218 218 221 208 221 228 233 222 229 231 231 238 242 246 253 258 256 258 256 260 259 265 277 286 282
214 219 222 222 218 213 220 226 229 232 234 233 229 230 241 248 234 236 246 252 257 253 255 258 255 256 254 253 256 260 255 265
214 209 210 217 222 230 230 231 237 237 240 242 240 234 227 239 266 246 249 252 257 259 246 253 252 246 247 249 253 256 255 264
Wind_Speed_850mb
26 38 48 59 62 59 60 62 62 57 55 54 53 50 46 41 37 34 29 25 22 18 15 13 11 9 8 7 7 6 6 8
31 35 47 59 64 61 59 59 59 57 53 52 51 47 44 42 37 31 27 23 19 16 12 9 5 5 2 1 1 1 3 6
31 41 52 59 65 64 62 60 59 56 53 50 47 46 43 39 36 32 26 21 17 13 9 5 2 1 3 5 4 4 4 5
35 41 53 60 68 67 62 59 58 57 54 50 47 44 41 38 34 29 26 21 16 11 8 5 4 5 7 8 9 7 7 6
37 44 51 61 70 72 68 60 56 55 53 50 46 44 40 37 34 30 25 20 16 12 9 8 8 8 10 11 12 11 7 6
45 43 48 59 68 74 72 68 61 56 54 50 47 44 41 39 34 30 26 21 16 13 12 11 14 14 15 14 15 13 9 3
46 52 49 60 65 73 75 73 70 64 62 57 51 46 43 40 36 30 26 22 19 17 15 14 18 18 20 17 15 15 8 7
17 49 48 52 64 67 76 77 71 69 65 62 56 50 45 43 40 36 31 27 22 21 18 16 19 21 21 18 11 11 11 14
9 22 47 46 52 67 71 79 79 73 65 63 61 56 52 48 44 40 36 29 26 22 16 10 11 16 19 19 14 14 18 19
8 12 21 40 50 57 69 77 79 74 68 64 62 61 58 55 51 47 42 36 29 24 18 11 11 12 14 15 15 20 21 23
35 19 16 25 43 47 56 69 72 69 59 56 60 62 61 58 55 53 49 43 36 27 21 18 15 15 17 25 23 27 27 29
44 39 26 29 42 46 46 57 60 67 53 45 46 59 61 59 58 54 52 48 42 31 28 27 24 24 22 32 31 32 37 37
50 51 55 42 38 54 52 53 54 51 52 59 50 46 51 52 54 54 55 55 46 39 37 36 32 34 32 38 40 41 39 33
59 60 58 56 43 59 61 59 52 50 47 56 60 53 49 49 49 49 51 50 41 46 47 42 42 46 44 42 44 42 32 32
57 58 62 59 55 62 71 69 61 56 54 47 60 61 55 54 56 52 46 43 39 42 48 50 48 46 45 44 44 46 39 35
62 63 65 63 56 69 73 69 56 60 68 64 52 49 53 60 60 49 48 47 47 48 49 51 51 51 48 45 44 48 48 40
60 66 65 64 55 62 61 59 56 51 41 58 74 60 47 59 55 41 54 56 53 52 52 55 59 61 55 51 45 44 47 44
67 70 70 69 53 49 62 60 62 59 53 54 54 49 34 52 54 52 60 61 62 53 49 56 52 60 55 54 52 46 23 26
67 62 60 55 51 49 47 52 63 61 60 62 58 74 66 53 45 48 61 68 67 54 44 51 41 48 55 61 61 48 49 56
Wind_Direction_850mb
161 171 177 174 171 171 165 161 159 159 158 156 154 152 150 148 145 142 138 133 128 123 118 110 106 103 100 101 107 131 151 163
175 175 182 179 175 174 173 169 167 166 165 163 160 158 156 154 152 148 145 142 138 133 125 110 102 92 73 61 103 198 230 216
181 181 182 181 180 179 178 176 175 175 173 170 168 165 163 161 158 156 154 154 151 147 150 142 139 341 308 289 284 282 282 284
188 185 182 185 185 184 184 183 183 183 181 178 176 174 172 169 167 166 166 167 165 170 185 195 245 287 295 294 292 302 308 322
187 195 185 187 190 189 187 188 189 192 190 188 186 183 181 180 178 178 179 180 182 193 215 240 261 285 303 300 305 311 311 3
186 191 192 192 194 195 193 190 191 196 199 198 196 194 192 191 191 190 190 195 204 217 235 259 276 291 299 304 301 296 272 341
187 187 192 196 199 200 199 198 194 196 200 203 203 203 202 203 201 203 205 211 221 235 253 269 281 290 297 308 302 284 259 277
174 198 198 200 202 206 208 205 203 201 202 205 207 208 211 212 210 211 216 222 233 248 260 266 274 286 293 294 319 328 289 293
105 184 209 213 207 209 213 213 210 208 207 209 210 212 214 216 218 219 224 228 237 242 241 240 263 284 299 301 315 332 329 328
222 175 190 219 221 220 216 213 215 215 214 216 216 217 218 219 219 222 227 229 233 233 228 231 250 278 304 318 314 315 330 331
241 250 237 213 217 223 220 218 216 218 221 226 229 226 223 223 225 225 229 231 232 233 239 245 252 260 283 291 298 310 319 323
236 235 227 226 220 218 214 217 217 216 216 219 226 230 229 229 227 230 235 238 240 241 247 251 258 269 278 288 301 311 316 319
237 236 240 237 233 213 213 210 215 223 221 226 218 219 223 222 227 229 239 243 245 246 248 252 261 272 278 286 295 297 298 306
240 241 232 233 218 211 213 216 213 222 224 225 223 213 214 210 214 221 231 240 243 245 248 254 260 267 272 275 280 284 288 305
238 234 225 225 204 204 209 217 222 222 215 210 218 217 228 227 219 220 229 240 239 246 246 247 251 258 265 269 275 280 287 307
227 224 220 221 207 206 208 217 223 234 229 218 221 210 212 234 231 223 230 238 244 249 253 254 255 260 263 268 276 274 281 285
217 217 219 222 216 213 215 218 218 221 208 221 228 233 222 229 231 231 238 242 246 253 258 256 258 256 260 259 265 277 286 282
214 219 222 222 218 213 220 226 229 232 234 233 229 230 241 248 234 236 246 252 257 253 255 258 255 256 254 253 256 260 255 265
214 209 210 217 222 230 230 231 237 237 240 242 240 234 227 239 266 246 249 252 257 259 246 253 252 246 247 249 253 256 255 264